Flag for U.S.A. Weather past 2 weeks in Clovis, New Mexico, U.S.A.

Now
72 °F

Passing clouds.


Feels Like: 74 °F
Forecast: 63 / 74 °F
Wind: 14 mph from Southeast

Location: Cannon Air Force Base / Clovis

Current Time: Sep 19, 2014 at 6:59:16 PM

Latest Report: Sep 19, 2014 at 5:58 PM


Visibility: 10 mi

Pressure: 29.88 "Hg

Humidity: 73%

Dew point: 63 °F

Location of ClovisLocation

Historic Weather in Clovis — Graph

°F

Clovis temperature yesterday

Maximum temperature yesterday: 68 °F (at 4:58 PM)
Minimum temperature yesterday: 64 °F (at 12:58 AM)
Average temperature yesterday: 66 °F

Past Weeks' High & Low Weather Summary

 TemperatureHumidityPressure
High90 °F (Sep 9, 4:58 PM)100% (Sep 5, 10:58 AM)30.40 "Hg (Sep 5, 10:58 AM)
Low45 °F (Sep 12, 11:58 PM)34% (Sep 9, 4:58 PM)29.68 "Hg (Sep 9, 4:58 PM)
Average65 °F80%30.04 "Hg
* Reported Sep 4 5:58 PM — Sep 19 5:58 PM, Clovis, Weather by CustomWeather, © 2014

Note: Actual official high and low records may vary slightly from our data, if they occured in-between our weather recording intervals... More about our weather records

Advertising

Clovis weather history for previous 24 hours

 ConditionsComfort  
Time TempWeatherWind HumidityBarometerVisibility
5:58 PM
Sep 19
72 °FPassing clouds.14 mph73%29.88 "Hg10 mi
4:58 PM75 °FScattered clouds.14 mph64%29.86 "Hg10 mi
3:58 PM76 °FBroken clouds.12 mph63%29.85 "Hg10 mi
2:58 PM74 °FBroken clouds.12 mph65%29.87 "Hg10 mi
1:58 PM69 °FLight rain. Broken clouds.13 mph95%29.89 "Hg5 mi
12:58 PM71 °FBroken clouds.13 mph95%29.90 "Hg10 mi
11:58 AM72 °FBroken clouds.7 mph88%29.92 "Hg10 mi
10:58 AM71 °FBroken clouds.9 mph89%29.93 "Hg10 mi
9:58 AM70 °FBroken clouds.10 mph78%29.96 "Hg10 mi
9:48 AM70 °FBroken clouds.7 mph78%30.09 "Hg10 mi
8:58 AM66 °FPartly sunny.6 mph94%29.94 "Hg10 mi
7:58 AM64 °FFog.6 mph94%29.94 "Hg5 mi
6:58 AM64 °FMostly cloudy.5 mph94%29.91 "Hg10 mi
5:58 AM64 °FFog.1 mph94%29.90 "Hg6 mi
4:58 AM64 °FFog.5 mph94%29.91 "Hg5 mi
3:58 AM64 °FFog.6 mph94%29.91 "Hg6 mi
2:58 AM64 °FLow clouds.8 mph94%29.91 "Hg10 mi
1:58 AM64 °FLow clouds.8 mph88%29.92 "Hg10 mi
12:58 AM64 °FMostly cloudy.7 mph94%29.93 "Hg10 mi
11:58 PM
Sep 18
64 °FLow clouds.9 mph88%29.94 "Hg10 mi
10:58 PM64 °FOvercast.9 mphN/A29.95 "Hg10 mi
9:58 PM64 °FMostly cloudy.9 mph100%29.94 "Hg10 mi
8:58 PM66 °FMostly cloudy.9 mph100%29.92 "Hg10 mi
7:58 PM66 °FMostly cloudy.8 mph100%29.89 "Hg10 mi
6:58 PM66 °FPartly sunny.8 mph100%29.88 "Hg10 mi
Weather by CustomWeather, © 2014

See weather overviewHow to use our weather pages